,,Stat6,,Stat2,,Stat8,,Stat9,,Stat10,,Wind1,,Wind1,
time,status,PA1M_AVG,status,PR1M_SUM,status,RH1M_AVG,status,SR1M_AVG,status,TA1M_AVG,status,W1dAve1m,status,W1sAve1m,
2007-09-24, 00:00:00,VALID,917.158,VALID,0,VALID,100,VALID,-0.118866,VALID,19.6314,VALID,131,VALID,0.688889,
2007-09-24, 00:01:00,VALID,917.168,VALID,0,VALID,100,VALID,-0.0679233,VALID,19.6214,VALID,125,VALID,0.711119,
2007-09-24, 00:02:00,VALID,917.15,VALID,0,VALID,100,VALID,-0.118866,VALID,19.6085,VALID,126,VALID,0.695676,
2007-09-24, 00:03:00,VALID,917.154,VALID,0,VALID,100,VALID,-0.118866,VALID,19.6085,VALID,128,VALID,0.585366,
2007-09-24, 00:04:00,VALID,917.146,VALID,0,VALID,100,VALID,-0.0849042,VALID,19.6147,VALID,82,VALID,0.4504,
2007-09-24, 00:05:00,VALID,917.134,VALID,0,VALID,100,VALID,-0.101885,VALID,19.6249,VALID,61,VALID,0.115885,
2007-09-24, 00:06:00,VALID,917.118,VALID,0,VALID,100,VALID,-0.0849042,VALID,19.6212,VALID,61,VALID,0.0783067,
2007-09-24, 00:07:00,VALID,917.118,VALID,0,VALID,100,VALID,-0.101885,VALID,19.6247,VALID,61,VALID,0,
2007-09-24, 00:08:00,VALID,917.107,VALID,0,VALID,100,VALID,-0.101885,VALID,19.6342,VALID,61,VALID,0.040516,
2007-09-24, 00:09:00,VALID,917.096,VALID,0,VALID,100,VALID,-0.101885,VALID,19.6339,VALID,6,VALID,0.217035,
2007-09-24, 00:10:00,VALID,917.063,VALID,0,VALID,100,VALID,-0.0849042,VALID,19.6344,VALID,314,VALID,0.521569,
2007-09-24, 00:11:00,VALID,917.037,VALID,0,VALID,100,VALID,-0.0849042,VALID,19.6312,VALID,277,VALID,0.714343,
2007-09-24, 00:12:00,VALID,916.997,VALID,0,VALID,100,VALID,-0.0849042,VALID,19.6312,VALID,277,VALID,0.405523,
2007-09-24, 00:13:00,VALID,916.963,VALID,0,VALID,100,VALID,-0.118866,VALID,19.6344,VALID,277,VALID,0.0429688,
2007-09-24, 00:14:00,VALID,916.932,VALID,0,VALID,100,VALID,-0.0849042,VALID,19.6441,VALID,277,VALID,0.050327,
2007-09-24, 00:15:00,VALID,916.918,VALID,0,VALID,100,VALID,-0.0849042,VALID,19.6704,VALID,277,VALID,0.015625,
2007-09-24, 00:16:00,VALID,916.899,VALID,0,VALID,100,VALID,-0.101885,VALID,19.6701,VALID,277,VALID,0,
2007-09-24, 00:17:00,VALID,916.896,VALID,0,VALID,100,VALID,-0.101885,VALID,19.6798,VALID,269,VALID,0.0437863,
2007-09-24, 00:18:00,VALID,916.895,VALID,0,VALID,100,VALID,-0.0679233,VALID,19.6671,VALID,195,VALID,0.62936,
2007-09-24, 00:19:00,VALID,916.926,VALID,0,VALID,100,VALID,-0.0509425,VALID,19.6509,VALID,163,VALID,0.874256,
2007-09-24, 00:20:00,VALID,916.947,VALID,0,VALID,100,VALID,-0.0509425,VALID,19.6212,VALID,160,VALID,0.886052,
2007-09-24, 00:21:00,VALID,916.97,VALID,0,VALID,100,VALID,-0.0849042,VALID,19.589,VALID,150,VALID,0.881177,
2007-09-24, 00:22:00,VALID,916.996,VALID,0,VALID,100,VALID,0,VALID,19.5548,VALID,157,VALID,0.670201,
2007-09-24, 00:23:00,VALID,917,VALID,0,VALID,100,VALID,0,VALID,19.5386,VALID,161,VALID,0.527071,
2007-09-24, 00:24:00,VALID,916.986,VALID,0,VALID,100,VALID,0.0339617,VALID,19.5551,VALID,147,VALID,0.535334,
2007-09-24, 00:25:00,VALID,916.956,VALID,0,VALID,100,VALID,0.0849042,VALID,19.5516,VALID,145,VALID,0.422215,
2007-09-24, 00:26:00,VALID,916.911,VALID,0,VALID,100,VALID,0.0169808,VALID,19.5418,VALID,143,VALID,1.07584,
2007-09-24, 00:27:00,VALID,916.874,VALID,0,VALID,100,VALID,0,VALID,19.5388,VALID,146,VALID,0.362432,
2007-09-24, 00:28:00,VALID,916.841,VALID,0,VALID,100,VALID,-0.0339617,VALID,19.5358,VALID,111,VALID,0.731001,
2007-09-24, 00:29:00,VALID,916.82,VALID,0,VALID,100,VALID,0.0169808,VALID,19.5256,VALID,121,VALID,0.419829,
2007-09-24, 00:30:00,VALID,916.786,VALID,0,VALID,100,VALID,0.0339617,VALID,19.5224,VALID,136,VALID,0.742006,
2007-09-24, 00:31:00,VALID,916.78,VALID,0,VALID,100,VALID,0.0169808,VALID,19.5319,VALID,128,VALID,0.843936,
2007-09-24, 00:32:00,VALID,916.748,VALID,0,VALID,100,VALID,0.0169808,VALID,19.5356,VALID,144,VALID,0.751698,
2007-09-24, 00:33:01,VALID,916.737,VALID,0,VALID,100,VALID,0,VALID,19.5358,VALID,155,VALID,0.67351,
2007-09-24, 00:34:00,VALID,916.711,VALID,0,VALID,100,VALID,0.0339617,VALID,19.5289,VALID,155,VALID,0.502038,
2007-09-24, 00:35:01,VALID,916.687,VALID,0,VALID,100,VALID,0,VALID,19.5418,VALID,155,VALID,0.697599,
2007-09-24, 00:36:00,VALID,916.672,VALID,0,VALID,100,VALID,-0.0169808,VALID,19.5386,VALID,157,VALID,0.512091,
2007-09-24, 00:37:00,VALID,916.657,VALID,0,VALID,100,VALID,-0.101885,VALID,19.5306,VALID,145,VALID,0.56978,
2007-09-24, 00:38:00,VALID,916.644,VALID,0,VALID,100,VALID,-0.135847,VALID,19.5306,VALID,157,VALID,0.68843,
2007-09-24, 00:39:00,VALID,916.648,VALID,0,VALID,100,VALID,-0.101885,VALID,19.5241,VALID,141,VALID,0.653201,
2007-09-24, 00:40:00,VALID,916.633,VALID,0,VALID,100,VALID,-0.0849042,VALID,19.5206,VALID,143,VALID,0.801339,
2007-09-24, 00:41:00,VALID,916.625,VALID,0,VALID,100,VALID,-0.101885,VALID,19.5209,VALID,145,VALID,0.697493,
2007-09-24, 00:42:00,VALID,916.621,VALID,0,VALID,100,VALID,-0.0679233,VALID,19.5174,VALID,142,VALID,0.840116,
2007-09-24, 00:43:00,VALID,916.612,VALID,0,VALID,100,VALID,-0.101885,VALID,19.5209,VALID,147,VALID,1.17708,
2007-09-24, 00:44:01,VALID,916.586,VALID,0,VALID,100,VALID,-0.0849042,VALID,19.5074,VALID,126,VALID,1.2017,
2007-09-24, 00:45:00,VALID,916.575,VALID,0,VALID,100,VALID,-0.0679233,VALID,19.5041,VALID,130,VALID,1.35122,
2007-09-24, 00:46:00,VALID,916.568,VALID,0,VALID,100,VALID,-0.101885,VALID,19.5241,VALID,139,VALID,1.2798,
2007-09-24, 00:47:01,VALID,916.539,VALID,0,VALID,100,VALID,-0.101885,VALID,19.5303,VALID,136,VALID,0.94215,
2007-09-24, 00:48:00,VALID,916.52,VALID,0,VALID,100,VALID,-0.135847,VALID,19.5476,VALID,136,VALID,1.21813,
2007-09-24, 00:49:00,VALID,916.506,VALID,0,VALID,100,VALID,-0.101885,VALID,19.5535,VALID,131,VALID,1.02401,
2007-09-24, 00:50:00,VALID,916.495,VALID,0,VALID,100,VALID,-0.118866,VALID,19.5565,VALID,121,VALID,0.775213,
2007-09-24, 00:51:00,VALID,916.474,VALID,0,VALID,100,VALID,-0.135847,VALID,19.5466,VALID,111,VALID,0.501189,
2007-09-24, 00:52:00,VALID,916.472,VALID,0,VALID,100,VALID,-0.0509425,VALID,19.5458,VALID,115,VALID,0.673437,
2007-09-24, 00:53:00,VALID,916.457,VALID,0,VALID,100,VALID,-0.0339617,VALID,19.5428,VALID,109,VALID,0.31978,
2007-09-24, 00:54:00,VALID,916.46,VALID,0,VALID,100,VALID,-0.0339617,VALID,19.5358,VALID,125,VALID,0.313388,
2007-09-24, 00:55:00,VALID,916.464,VALID,0,VALID,100,VALID,-0.0509425,VALID,19.5526,VALID,116,VALID,0.540968,
2007-09-24, 00:56:00,VALID,916.463,VALID,0,VALID,100,VALID,-0.0169808,VALID,19.5491,VALID,120,VALID,0.362351,
2007-09-24, 00:57:00,VALID,916.469,VALID,0,VALID,100,VALID,-0.0169808,VALID,19.5391,VALID,128,VALID,0.720898,
2007-09-24, 00:58:00,VALID,916.462,VALID,0,VALID,100,VALID,0,VALID,19.5324,VALID,132,VALID,0.131641,
2007-09-24, 00:59:01,VALID,916.453,VALID,0,VALID,100,VALID,-0.0169808,VALID,19.5423,VALID,124,VALID,0.682165,
2007-09-24, 01:00:00,VALID,916.442,VALID,0,VALID,100,VALID,-0.0169808,VALID,19.5491,VALID,126,VALID,0.536014,
2007-09-24, 01:01:00,VALID,916.404,VALID,0,VALID,100,VALID,-0.0169808,VALID,19.5488,VALID,125,VALID,0.568407,
2007-09-24, 01:02:00,VALID,916.378,VALID,0,VALID,100,VALID,-0.0339617,VALID,19.5456,VALID,110,VALID,0.523256,
2007-09-24, 01:03:00,VALID,916.327,VALID,0,VALID,100,VALID,-0.0339617,VALID,19.5491,VALID,179,VALID,0.438058,
2007-09-24, 01:04:01,VALID,916.326,VALID,0,VALID,100,VALID,-0.0509425,VALID,19.5423,VALID,159,VALID,0.544271,
2007-09-24, 01:05:01,VALID,916.304,VALID,0,VALID,100,VALID,-0.0339617,VALID,19.5458,VALID,147,VALID,0.331854,
2007-09-24, 01:06:00,VALID,916.29,VALID,0.2,VALID,100,VALID,-0.0339617,VALID,19.5491,VALID,152,VALID,0.37221,
2007-09-24, 01:07:01,VALID,916.295,VALID,0,VALID,100,VALID,-0.0339617,VALID,19.5456,VALID,150,VALID,0.100142,
2007-09-24, 01:08:00,VALID,916.291,VALID,0,VALID,100,VALID,0,VALID,19.5456,VALID,150,VALID,0.100109,
2007-09-24, 01:09:00,VALID,916.305,VALID,0,VALID,100,VALID,-0.0169808,VALID,19.5488,VALID,150,VALID,0.453472,
2007-09-24, 01:10:00,VALID,916.3,VALID,0,VALID,100,VALID,-0.0509425,VALID,19.5486,VALID,150,VALID,0.217221,
2007-09-24, 01:11:00,VALID,916.277,VALID,0,VALID,100,VALID,-0.0169808,VALID,19.5518,VALID,150,VALID,0.0848722,
2007-09-24, 01:12:01,VALID,916.248,VALID,0,VALID,100,VALID,-0.0509425,VALID,19.5583,VALID,150,VALID,0,
2007-09-24, 01:13:00,VALID,916.227,VALID,0,VALID,100,VALID,0,VALID,19.562,VALID,150,VALID,0.107329,
2007-09-24, 01:14:01,VALID,916.183,VALID,0,VALID,100,VALID,-0.0339617,VALID,19.5556,VALID,150,VALID,0.254383,
2007-09-24, 01:15:01,VALID,916.147,VALID,0,VALID,100,VALID,-0.0339617,VALID,19.5725,VALID,150,VALID,0.43407,
2007-09-24, 01:16:00,VALID,916.133,VALID,0,VALID,100,VALID,-0.0339617,VALID,19.5488,VALID,150,VALID,0.391226,
2007-09-24, 01:17:00,VALID,916.122,VALID,0,VALID,100,VALID,-0.0339617,VALID,19.5491,VALID,150,VALID,0.721475,
2007-09-24, 01:18:01,VALID,916.104,VALID,0,VALID,100,VALID,-0.0509425,VALID,19.5358,VALID,145,VALID,0.723189,
2007-09-24, 01:19:01,VALID,916.093,VALID,0,VALID,100,VALID,-0.0509425,VALID,19.5261,VALID,153,VALID,0.747266,
2007-09-24, 01:20:00,VALID,916.072,VALID,0,VALID,100,VALID,-0.0339617,VALID,19.5261,VALID,151,VALID,0.803906,
2007-09-24, 01:21:01,VALID,916.047,VALID,0,VALID,100,VALID,-0.0169808,VALID,19.5236,VALID,148,VALID,0.902798,
2007-09-24, 01:22:01,VALID,916.023,VALID,0,VALID,100,VALID,-0.0169808,VALID,19.5164,VALID,134,VALID,0.611683,
2007-09-24, 01:23:01,VALID,916.006,VALID,0,VALID,100,VALID,-0.0339617,VALID,19.5169,VALID,148,VALID,0.928977,
2007-09-24, 01:24:01,VALID,915.993,VALID,0,VALID,100,VALID,-0.0509425,VALID,19.5131,VALID,156,VALID,0.975654,
2007-09-24, 01:25:01,VALID,915.997,VALID,0,VALID,100,VALID,-0.0509425,VALID,19.5104,VALID,142,VALID,1.14205,
2007-09-24, 01:26:01,VALID,915.994,VALID,0,VALID,100,VALID,-0.0339617,VALID,19.5234,VALID,136,VALID,0.807528,
2007-09-24, 01:27:00,VALID,915.972,VALID,0,VALID,100,VALID,-0.0339617,VALID,19.5136,VALID,132,VALID,1.10087,
2007-09-24, 01:28:01,VALID,915.973,VALID,0,VALID,100,VALID,-0.0509425,VALID,19.5101,VALID,133,VALID,1.08519,
2007-09-24, 01:29:01,VALID,915.974,VALID,0,VALID,100,VALID,-0.0169808,VALID,19.4969,VALID,132,VALID,0.970052,
2007-09-24, 01:30:01,VALID,915.959,VALID,0,VALID,100,VALID,0,VALID,19.4939,VALID,121,VALID,0.875,
2007-09-24, 01:31:01,VALID,915.949,VALID,0,VALID,100,VALID,-0.0509425,VALID,19.4774,VALID,108,VALID,0.507292,
2007-09-24, 01:32:01,VALID,915.936,VALID,0,VALID,100,VALID,-0.0169808,VALID,19.4774,VALID,125,VALID,0.903201,
2007-09-24, 01:33:01,VALID,915.932,VALID,0.2,VALID,100,VALID,-0.0169808,VALID,19.4844,VALID,120,VALID,0.906783,
2007-09-24, 01:34:00,VALID,915.909,VALID,0,VALID,100,VALID,-0.0169808,VALID,19.4642,VALID,110,VALID,0.787157,
2007-09-24, 01:35:00,VALID,915.912,VALID,0,VALID,100,VALID,0,VALID,19.451,VALID,114,VALID,0.406068,
2007-09-24, 01:36:00,VALID,915.89,VALID,0,VALID,100,VALID,0,VALID,19.4478,VALID,126,VALID,0.840021,
2007-09-24, 01:37:00,VALID,915.865,VALID,0,VALID,100,VALID,-0.0339617,VALID,19.4453,VALID,118,VALID,0.917969,
2007-09-24, 01:38:00,VALID,915.865,VALID,0,VALID,100,VALID,0,VALID,19.4285,VALID,131,VALID,0.677148,
2007-09-24, 01:39:00,VALID,915.871,VALID,0,VALID,100,VALID,-0.0169808,VALID,19.4225,VALID,125,VALID,0.524182,
2007-09-24, 01:40:00,VALID,915.862,VALID,0,VALID,100,VALID,-0.0169808,VALID,19.4195,VALID,122,VALID,0.957031,
2007-09-24, 01:41:00,VALID,915.855,VALID,0,VALID,100,VALID,-0.0509425,VALID,19.4126,VALID,122,VALID,0.759993,
2007-09-24, 01:42:00,VALID,915.837,VALID,0,VALID,100,VALID,-0.0339617,VALID,19.4126,VALID,114,VALID,0.592035,
2007-09-24, 01:43:00,VALID,915.828,VALID,0,VALID,100,VALID,0,VALID,19.3996,VALID,108,VALID,0.639323,
2007-09-24, 01:44:00,VALID,915.821,VALID,0,VALID,100,VALID,-0.0169808,VALID,19.3834,VALID,114,VALID,0.64008,
2007-09-24, 01:45:00,VALID,915.813,VALID,0,VALID,100,VALID,-0.0339617,VALID,19.3899,VALID,117,VALID,0.721726,
2007-09-24, 01:46:00,VALID,915.796,VALID,0,VALID,100,VALID,0,VALID,19.3896,VALID,111,VALID,0.677326,
2007-09-24, 01:47:00,VALID,915.769,VALID,0,VALID,100,VALID,0,VALID,19.3799,VALID,108,VALID,0.796875,
2007-09-24, 01:48:00,VALID,915.753,VALID,0,VALID,100,VALID,-0.0169808,VALID,19.3669,VALID,106,VALID,0.830903,
2007-09-24, 01:49:00,VALID,915.745,VALID,0,VALID,100,VALID,0.0169808,VALID,19.3704,VALID,106,VALID,0.668269,
2007-09-24, 01:50:00,VALID,915.734,VALID,0,VALID,100,VALID,-0.0169808,VALID,19.3769,VALID,117,VALID,0.713914,
2007-09-24, 01:51:00,VALID,915.719,VALID,0,VALID,100,VALID,0.0169808,VALID,19.3734,VALID,122,VALID,0.603002,
2007-09-24, 01:52:00,VALID,915.707,VALID,0,VALID,100,VALID,-0.0849042,VALID,19.3846,VALID,129,VALID,0.706003,
2007-09-24, 01:53:00,VALID,915.695,VALID,0,VALID,100,VALID,-0.0679233,VALID,19.3744,VALID,121,VALID,0.751562,
2007-09-24, 01:54:00,VALID,915.698,VALID,0,VALID,100,VALID,-0.0849042,VALID,19.3714,VALID,112,VALID,0.499826,
2007-09-24, 01:55:00,VALID,915.687,VALID,0,VALID,100,VALID,-0.0849042,VALID,19.3814,VALID,98,VALID,0.609553,
2007-09-24, 01:56:00,VALID,915.69,VALID,0,VALID,100,VALID,-0.0679233,VALID,19.3811,VALID,97,VALID,0.508185,
2007-09-24, 01:57:00,VALID,915.683,VALID,0,VALID,100,VALID,-0.0849042,VALID,19.3846,VALID,97,VALID,0.471058,
2007-09-24, 01:58:00,VALID,915.674,VALID,0,VALID,100,VALID,-0.0849042,VALID,19.3814,VALID,97,VALID,0.15734,
2007-09-24, 01:59:00,VALID,915.68,VALID,0,VALID,100,VALID,-0.101885,VALID,19.3814,VALID,97,VALID,0.519159,
2007-09-24, 02:00:00,VALID,915.668,VALID,0,VALID,100,VALID,-0.101885,VALID,19.3716,VALID,97,VALID,0.412574,
2007-09-24, 02:01:00,VALID,915.681,VALID,0,VALID,100,VALID,-0.101885,VALID,19.3754,VALID,97,VALID,0.268229,
2007-09-24, 02:02:00,VALID,915.673,VALID,0,VALID,100,VALID,-0.101885,VALID,19.3651,VALID,97,VALID,0.176367,
2007-09-24, 02:03:00,VALID,915.674,VALID,0,VALID,100,VALID,-0.101885,VALID,19.3522,VALID,97,VALID,0.0219131,
2007-09-24, 02:04:00,VALID,915.663,VALID,0,VALID,100,VALID,-0.118866,VALID,19.3487,VALID,97,VALID,0,
2007-09-24, 02:05:00,VALID,915.652,VALID,0,VALID,100,VALID,-0.118866,VALID,19.3489,VALID,97,VALID,0,
2007-09-24, 02:06:00,VALID,915.653,VALID,0,VALID,100,VALID,-0.118866,VALID,19.3489,VALID,97,VALID,0.145597,
2007-09-24, 02:07:00,VALID,915.642,VALID,0,VALID,100,VALID,0.0339617,VALID,19.3504,VALID,97,VALID,0.252604,
2007-09-24, 02:08:00,VALID,915.639,VALID,0,VALID,100,VALID,0,VALID,19.3669,VALID,97,VALID,0.0261719,
2007-09-24, 02:09:00,VALID,915.613,VALID,0,VALID,100,VALID,0.0339617,VALID,19.3504,VALID,97,VALID,0,
2007-09-24, 02:10:00,VALID,915.603,VALID,0,VALID,100,VALID,0.0509425,VALID,19.3302,VALID,97,VALID,0,
2007-09-24, 02:11:00,VALID,915.609,VALID,0,VALID,100,VALID,0.0339617,VALID,19.3175,VALID,97,VALID,0,
2007-09-24, 02:12:00,VALID,915.615,VALID,0,VALID,100,VALID,0.0339617,VALID,19.3105,VALID,97,VALID,0,
2007-09-24, 02:13:00,VALID,915.621,VALID,0,VALID,100,VALID,0,VALID,19.341,VALID,97,VALID,0,
2007-09-24, 02:14:00,VALID,915.617,VALID,0,VALID,100,VALID,0.0169808,VALID,19.3407,VALID,97,VALID,0,
2007-09-24, 02:15:00,VALID,915.631,VALID,0,VALID,100,VALID,-0.0169808,VALID,19.3345,VALID,97,VALID,0,
2007-09-24, 02:16:00,VALID,915.629,VALID,0,VALID,100,VALID,0.0169808,VALID,19.3212,VALID,97,VALID,0,
2007-09-24, 02:17:00,VALID,915.634,VALID,0,VALID,100,VALID,0,VALID,19.2988,VALID,97,VALID,0,
2007-09-24, 02:18:00,VALID,915.648,VALID,0,VALID,100,VALID,-0.0169808,VALID,19.289,VALID,97,VALID,0,
2007-09-24, 02:19:00,VALID,915.655,VALID,0,VALID,100,VALID,-0.0169808,VALID,19.2823,VALID,97,VALID,0.0464939,
2007-09-24, 02:20:00,VALID,915.661,VALID,0,VALID,100,VALID,0,VALID,19.2761,VALID,97,VALID,0.351944,
2007-09-24, 02:21:00,VALID,915.668,VALID,0,VALID,100,VALID,0,VALID,19.2561,VALID,97,VALID,0.458891,
2007-09-24, 02:22:00,VALID,915.661,VALID,0,VALID,100,VALID,-0.101885,VALID,19.2351,VALID,97,VALID,0.489183,
2007-09-24, 02:23:00,VALID,915.677,VALID,0,VALID,100,VALID,-0.0849042,VALID,19.2129,VALID,97,VALID,0.386161,
2007-09-24, 02:24:00,VALID,915.677,VALID,0,VALID,100,VALID,-0.101885,VALID,19.1899,VALID,97,VALID,0.450639,
2007-09-24, 02:25:00,VALID,915.69,VALID,0,VALID,100,VALID,-0.0849042,VALID,19.167,VALID,97,VALID,0.483648,
2007-09-24, 02:26:00,VALID,915.684,VALID,0,VALID,100,VALID,-0.118866,VALID,19.1637,VALID,97,VALID,0.571456,
2007-09-24, 02:27:00,VALID,915.682,VALID,0,VALID,100,VALID,-0.135847,VALID,19.1575,VALID,97,VALID,0.702276,
2007-09-24, 02:28:00,VALID,915.677,VALID,0,VALID,100,VALID,-0.101885,VALID,19.1573,VALID,97,VALID,0.585352,
2007-09-24, 02:29:00,VALID,915.691,VALID,0,VALID,100,VALID,-0.0849042,VALID,19.167,VALID,106,VALID,0.728016,
2007-09-24, 02:30:00,VALID,915.7,VALID,0,VALID,100,VALID,-0.0849042,VALID,19.1702,VALID,111,VALID,0.750533,
2007-09-24, 02:31:00,VALID,915.685,VALID,0,VALID,100,VALID,-0.0169808,VALID,19.169,VALID,119,VALID,0.828472,
2007-09-24, 02:32:00,VALID,915.691,VALID,0,VALID,100,VALID,-0.0169808,VALID,19.1755,VALID,122,VALID,0.97061,
2007-09-24, 02:33:00,VALID,915.695,VALID,0,VALID,100,VALID,0.0339617,VALID,19.2045,VALID,124,VALID,0.975586,
2007-09-24, 02:34:00,VALID,915.701,VALID,0,VALID,100,VALID,0,VALID,19.1977,VALID,129,VALID,1.20721,
2007-09-24, 02:35:00,VALID,915.699,VALID,0,VALID,100,VALID,0,VALID,19.2107,VALID,139,VALID,1.14395,
2007-09-24, 02:36:00,VALID,915.693,VALID,0,VALID,100,VALID,0,VALID,19.2174,VALID,136,VALID,1.1029,
2007-09-24, 02:37:00,VALID,915.688,VALID,0,VALID,100,VALID,0,VALID,19.2077,VALID,143,VALID,1.11172,
2007-09-24, 02:38:00,VALID,915.693,VALID,0,VALID,100,VALID,0,VALID,19.2177,VALID,140,VALID,0.999238,
2007-09-24, 02:39:00,VALID,915.692,VALID,0,VALID,100,VALID,0,VALID,19.2242,VALID,138,VALID,1.12099,
2007-09-24, 02:40:00,VALID,915.701,VALID,0,VALID,100,VALID,0,VALID,19.2177,VALID,137,VALID,1.12872,
2007-09-24, 02:41:00,VALID,915.719,VALID,0,VALID,100,VALID,-0.0169808,VALID,19.2142,VALID,136,VALID,1.27805,
2007-09-24, 02:42:00,VALID,915.718,VALID,0,VALID,100,VALID,0.0169808,VALID,19.2371,VALID,139,VALID,1.15644,
2007-09-24, 02:43:00,VALID,915.75,VALID,0,VALID,100,VALID,-0.0169808,VALID,19.2439,VALID,169,VALID,0.821221,
2007-09-24, 02:44:00,VALID,915.751,VALID,0,VALID,100,VALID,0.0339617,VALID,19.2434,VALID,145,VALID,1.11384,
2007-09-24, 02:45:00,VALID,915.765,VALID,0,VALID,100,VALID,0,VALID,19.2499,VALID,133,VALID,0.999467,
2007-09-24, 02:46:00,VALID,915.782,VALID,0,VALID,100,VALID,0,VALID,19.2534,VALID,132,VALID,0.863186,
2007-09-24, 02:47:00,VALID,915.802,VALID,0,VALID,100,VALID,0.0169808,VALID,19.2529,VALID,142,VALID,0.939135,
2007-09-24, 02:48:00,VALID,915.805,VALID,0,VALID,100,VALID,0,VALID,19.2466,VALID,141,VALID,1.28697,
2007-09-24, 02:49:00,VALID,915.82,VALID,0,VALID,100,VALID,0,VALID,19.2531,VALID,132,VALID,1.11433,
2007-09-24, 02:50:00,VALID,915.826,VALID,0,VALID,100,VALID,0.0339617,VALID,19.2466,VALID,118,VALID,0.950977,
2007-09-24, 02:51:00,VALID,915.829,VALID,0,VALID,100,VALID,0,VALID,19.2469,VALID,128,VALID,0.88418,
2007-09-24, 02:52:00,VALID,915.821,VALID,0.2,VALID,100,VALID,0.0169808,VALID,19.2339,VALID,120,VALID,0.60831,
2007-09-24, 02:53:00,VALID,915.823,VALID,0,VALID,100,VALID,0.0169808,VALID,19.2302,VALID,120,VALID,0.991992,
2007-09-24, 02:54:00,VALID,915.821,VALID,0,VALID,100,VALID,0,VALID,19.2274,VALID,116,VALID,0.653088,
2007-09-24, 02:55:00,VALID,915.812,VALID,0,VALID,100,VALID,-0.0339617,VALID,19.2112,VALID,127,VALID,0.945858,
2007-09-24, 02:56:00,VALID,915.81,VALID,0,VALID,100,VALID,0.0169808,VALID,19.2075,VALID,135,VALID,1.03587,
2007-09-24, 02:57:00,VALID,915.821,VALID,0,VALID,100,VALID,0.0169808,VALID,19.2112,VALID,133,VALID,1.24097,
2007-09-24, 02:58:00,VALID,915.812,VALID,0,VALID,100,VALID,0.0509425,VALID,19.2072,VALID,134,VALID,1.04501,
2007-09-24, 02:59:00,VALID,915.819,VALID,0,VALID,100,VALID,0.0339617,VALID,19.2137,VALID,140,VALID,1.11889,
2007-09-24, 03:00:00,VALID,915.842,VALID,0,VALID,100,VALID,0.0169808,VALID,19.2307,VALID,138,VALID,0.964939,
2007-09-24, 03:01:00,VALID,915.842,VALID,0,VALID,100,VALID,0.0169808,VALID,19.2269,VALID,143,VALID,0.871528,
2007-09-24, 03:02:00,VALID,915.854,VALID,0,VALID,100,VALID,0.0339617,VALID,19.2339,VALID,127,VALID,0.704241,
2007-09-24, 03:03:00,VALID,915.857,VALID,0,VALID,100,VALID,0.0169808,VALID,19.2334,VALID,140,VALID,0.781605,
2007-09-24, 03:04:00,VALID,915.865,VALID,0,VALID,100,VALID,0,VALID,19.2434,VALID,128,VALID,0.724019,
2007-09-24, 03:05:00,VALID,915.868,VALID,0,VALID,100,VALID,0,VALID,19.2399,VALID,138,VALID,0.699219,
2007-09-24, 03:06:00,VALID,915.863,VALID,0,VALID,100,VALID,0.0169808,VALID,19.2501,VALID,148,VALID,0.442827,
2007-09-24, 03:07:00,VALID,915.869,VALID,0,VALID,100,VALID,-0.101885,VALID,19.2444,VALID,153,VALID,0.638081,
2007-09-24, 03:08:00,VALID,915.852,VALID,0,VALID,100,VALID,-0.0849042,VALID,19.2513,VALID,147,VALID,0.350654,
2007-09-24, 03:09:00,VALID,915.837,VALID,0,VALID,100,VALID,-0.0849042,VALID,19.2581,VALID,157,VALID,0.546494,
2007-09-24, 03:10:00,VALID,915.817,VALID,0,VALID,100,VALID,-0.0849042,VALID,19.2611,VALID,157,VALID,0.529576,
2007-09-24, 03:11:00,VALID,915.807,VALID,0,VALID,100,VALID,-0.0679233,VALID,19.2643,VALID,139,VALID,0.269985,
2007-09-24, 03:12:00,VALID,915.805,VALID,0,VALID,100,VALID,-0.0509425,VALID,19.2708,VALID,136,VALID,0.624619,
2007-09-24, 03:13:00,VALID,915.793,VALID,0,VALID,100,VALID,-0.0849042,VALID,19.271,VALID,119,VALID,0.603743,
2007-09-24, 03:14:00,VALID,915.793,VALID,0,VALID,100,VALID,-0.101885,VALID,19.2611,VALID,113,VALID,0.664789,
2007-09-24, 03:15:00,VALID,915.8,VALID,0,VALID,100,VALID,-0.0849042,VALID,19.2738,VALID,121,VALID,0.457741,
2007-09-24, 03:16:00,VALID,915.802,VALID,0,VALID,100,VALID,-0.0509425,VALID,19.2703,VALID,114,VALID,0.826672,
2007-09-24, 03:17:00,VALID,915.812,VALID,0,VALID,100,VALID,-0.101885,VALID,19.2838,VALID,99,VALID,0.614397,
2007-09-24, 03:18:00,VALID,915.815,VALID,0,VALID,100,VALID,-0.101885,VALID,19.2905,VALID,102,VALID,0.380008,
2007-09-24, 03:19:00,VALID,915.823,VALID,0,VALID,100,VALID,-0.0849042,VALID,19.2905,VALID,107,VALID,0.299368,
2007-09-24, 03:20:00,VALID,915.825,VALID,0,VALID,100,VALID,-0.101885,VALID,19.2775,VALID,115,VALID,0.179874,
2007-09-24, 03:21:00,VALID,915.818,VALID,0,VALID,100,VALID,-0.101885,VALID,19.2805,VALID,115,VALID,0.332317,
2007-09-24, 03:22:00,VALID,915.82,VALID,0,VALID,100,VALID,-0.0849042,VALID,19.2838,VALID,115,VALID,0.416319,
2007-09-24, 03:23:00,VALID,915.807,VALID,0,VALID,100,VALID,-0.101885,VALID,19.2935,VALID,115,VALID,0.355152,
2007-09-24, 03:24:00,VALID,915.796,VALID,0,VALID,100,VALID,-0.0679233,VALID,19.3002,VALID,115,VALID,0.382994,
2007-09-24, 03:25:00,VALID,915.796,VALID,0,VALID,100,VALID,-0.118866,VALID,19.3067,VALID,115,VALID,0.224734,
2007-09-24, 03:26:00,VALID,915.775,VALID,0,VALID,100,VALID,-0.0509425,VALID,19.3,VALID,115,VALID,0.109566,
2007-09-24, 03:27:00,VALID,915.764,VALID,0,VALID,100,VALID,-0.101885,VALID,19.29,VALID,115,VALID,0.162326,
2007-09-24, 03:28:00,VALID,915.751,VALID,0,VALID,100,VALID,-0.118866,VALID,19.297,VALID,115,VALID,0.229421,
2007-09-24, 03:29:00,VALID,915.745,VALID,0,VALID,100,VALID,-0.101885,VALID,19.3005,VALID,115,VALID,0.062314,
2007-09-24, 03:30:00,VALID,915.755,VALID,0,VALID,100,VALID,-0.101885,VALID,19.3002,VALID,115,VALID,0.35665,
2007-09-24, 03:31:00,VALID,915.738,VALID,0,VALID,100,VALID,-0.101885,VALID,19.2938,VALID,115,VALID,0.348772,
2007-09-24, 03:32:00,VALID,915.737,VALID,0,VALID,100,VALID,-0.0849042,VALID,19.2873,VALID,115,VALID,0.344131,
2007-09-24, 03:33:00,VALID,915.728,VALID,0,VALID,100,VALID,-0.118866,VALID,19.2743,VALID,115,VALID,0.496185,
2007-09-24, 03:34:00,VALID,915.728,VALID,0,VALID,100,VALID,-0.101885,VALID,19.2581,VALID,115,VALID,0.807413,
2007-09-24, 03:35:00,VALID,915.723,VALID,0,VALID,100,VALID,-0.101885,VALID,19.2483,VALID,118,VALID,0.764353,
2007-09-24, 03:36:00,VALID,915.727,VALID,0,VALID,100,VALID,-0.118866,VALID,19.2356,VALID,132,VALID,0.779535,
2007-09-24, 03:37:00,VALID,915.718,VALID,0,VALID,100,VALID,0,VALID,19.2207,VALID,135,VALID,0.778054,
2007-09-24, 03:38:00,VALID,915.722,VALID,0,VALID,100,VALID,-0.0169808,VALID,19.211,VALID,152,VALID,0.854106,
2007-09-24, 03:39:00,VALID,915.699,VALID,0,VALID,100,VALID,0,VALID,19.208,VALID,154,VALID,1.07397,
2007-09-24, 03:40:00,VALID,915.711,VALID,0,VALID,100,VALID,0,VALID,19.1917,VALID,146,VALID,1.16352,
2007-09-24, 03:41:00,VALID,915.72,VALID,0,VALID,100,VALID,-0.0169808,VALID,19.1885,VALID,147,VALID,0.974702,